Volver al catálogo

THORAD DELTA 1 DEB

ActivoLEO
NORAD 17728·DEBRIS·🇺🇸 United States

Lanzado Nov 15, 1974 desde Vandenberg Space Force Base

Loading…

Próximos Pases (próximas 24 horas)

TLE

ActualizadoSource: Space-Track

Época: Sep 14, 2026, 08:09 UTC

1 17728U 74089EX  26257.33997203 -.00000010  00000-0  23976-3 0  9993
2 17728 101.4867  40.3636 0106221  73.4166 316.7538 12.35164174873280

Sigue THORAD DELTA 1 DEB en tiempo real con AllMySat

Download on the App Store